Flag for Canada Weather past 2 weeks in Hay River, Northwest Territories, Canada

Now
50 °F

Broken clouds.


Feels Like: 47 °F
Forecast: 55 / 78 °F
Wind: 7 mph from West

Location: Hay River

Current Time: Aug 1, 2014 at 12:07:20 AM

Latest Report: Jul 31, 2014 at 11:00 PM


Visibility: 15 mi

Pressure: 30.30 "Hg

Humidity: 76%

Dew point: 43 °F

Location of Hay RiverLocation

Historic Weather in Hay River — Graph

°F

Hay River temperature yesterday

Maximum temperature yesterday: 61 °F (at 12:00 AM)
Minimum temperature yesterday: 52 °F (at 5:00 AM)
Average temperature yesterday: 56 °F

Past Weeks' High & Low Weather Summary

 TemperatureHumidityPressure
High88 °F (Jul 23, 3:00 PM)94% (Jul 27, 12:00 AM)30.29 "Hg (Jul 27, 12:00 AM)
Low43 °F (Jul 20, 5:00 AM)29% (Jul 23, 3:00 PM)29.53 "Hg (Jul 19, 2:00 AM)
Average66 °F64%29.86 "Hg
* Reported Jul 16 10:00 PM — Jul 31 10:00 PM, Hay River, Weather by CustomWeather, © 2014

Note: Actual official high and low records may vary slightly from our data, if they occured in-between our weather recording intervals... More about our weather records

Advertising

Hay River weather history for previous 24 hours

 ConditionsComfort  
Time TempWeatherWind HumidityBarometerVisibility
10:00 PM
Jul 31
52 °FPartly sunny.5 mph72%30.29 "Hg15 mi
9:00 PM55 °FBroken clouds.3 mph67%30.29 "Hg15 mi
8:00 PM57 °FPartly sunny.8 mph59%30.28 "Hg15 mi
7:00 PM55 °FPartly sunny.9 mph63%30.28 "Hg15 mi
6:00 PM55 °FMore clouds than sun.12 mph63%30.28 "Hg14 mi
5:00 PM57 °FMore clouds than sun.12 mph59%30.27 "Hg12 mi
4:00 PM57 °FMore clouds than sun.8 mph63%30.27 "Hg12 mi
3:00 PM57 °FMostly cloudy.9 mph63%30.27 "Hg12 mi
2:00 PM57 °FMore clouds than sun.10 mph63%30.25 "Hg10 mi
1:00 PM55 °FMore clouds than sun.10 mph67%30.24 "Hg5 mi
12:00 PM57 °FMore clouds than sun.14 mph67%30.22 "Hg8 mi
11:00 AM55 °FMore clouds than sun.13 mph72%30.21 "Hg6 mi
10:00 AM55 °FPartly sunny.8 mph77%30.21 "Hg3 mi
9:00 AM55 °FBroken clouds.10 mph72%30.19 "Hg3 mi
8:00 AM52 °FBroken clouds.9 mph88%30.17 "Hg5 mi
7:00 AM54 °FBroken clouds.10 mph82%30.16 "Hg5 mi
6:00 AM54 °FPassing clouds.10 mph82%30.14 "Hg5 mi
5:00 AM52 °FPassing clouds.12 mph88%30.13 "Hg3 mi
4:00 AM55 °FPassing clouds.10 mph82%30.13 "Hg2 mi
3:00 AM55 °FPassing clouds.10 mph82%30.11 "Hg2 mi
2:00 AM57 °FPassing clouds.9 mph82%30.08 "Hg2 mi
1:00 AM59 °FPassing clouds.10 mph82%30.06 "Hg2 mi
12:00 AM61 °FPassing clouds.7 mph77%30.03 "Hg2 mi
Weather by CustomWeather, © 2014

See weather overviewHow to use our weather pages